User: anonymous   Login
Location: Augirein
(42.9320°N, 0.9181°E)
Time: 07:29:07
(UTC+00:00)
Language:

CZ-2C R/B - Orbit

View from above orbital plane
View from above orbital plane
View from above satellite
View from above satellite

Ground track
Ground track

The orbit data is extracted from the following two-line orbital elements,

1 39364U 13059B   22029.13377602  .00003627  00000-0  12648-3 0  9999
2 39364  97.1835  87.2480 0046746 108.9969 251.6346 15.29198607458943
Epoch (UTC): 29 January 2022 03:12:38
Eccentricity: 0.0046746
inclination: 97.1835°
perigee height: 446 km
apogee height: 510 km
right ascension of ascending node: 87.2480°
argument of perigee: 108.9969°
revolutions per day: 15.29198607
mean anomaly at epoch: 251.6346°
orbit number at epoch: 45894

The dashed part of the orbit path shows where the satellite is in the earth's shadow,  

DLR